Location: Newark
(42.1667°N, 14.5667°E)
Time: 21:01:29
(UTC+00:00)

Envisat - Pass Details

Date: 25 January 2020
Orbit: 764 x 766 km, 98.1° (Epoch: 25 February)

Event Time Altitude Azimuth Distance (km) Brightness Sun altitude
Rises 04:32:47 0° 29° (NNE) 3,240 6.5 -20.2°
Reaches altitude 10° 04:35:51 10° 49° (NE) 2,308 6.0 -19.6°
Maximum altitude 04:39:16 18° 91° (E) 1,811 5.9 -19.0°
Drops below altitude 10° 04:42:40 10° 134° (SE) 2,296 6.3 -18.3°
Sets 04:45:41 0° 153° (SSE) 3,216 6.8 -17.8°
